This is the latest recevied weather packets stored in our database for station/object N5GMJ. If no packets are shown the sender has not sent any weather packets the latest 10 day(s).
| Time | Temp. | Humidity | Pressure | Rain* | Wind** | Luminosity | Snow |
|---|---|---|---|---|---|---|---|
| 1777405898 | 27.78° C | 82% | 1010.6 hPa | 0 mm | - | - | - |
| 1777405594 | 27.78° C | 82% | 1010.4 hPa | 0 mm | - | - | - |
| 1777405292 | 28.33° C | 81% | 1010.8 hPa | 0 mm | - | - | - |
| 1777404991 | 27.78° C | 81% | 1010.1 hPa | 0 mm | - | - | - |
| 1777404686 | 27.78° C | 82% | 1010.2 hPa | 0 mm | - | - | - |
| 1777404382 | 27.78° C | 81% | 1010.4 hPa | 0 mm | - | - | - |
| 1777404080 | 27.78° C | 80% | 1010.9 hPa | 0 mm | - | - | - |
| 1777403774 | 27.78° C | 81% | 1011 hPa | 0 mm | - | - | - |
| 1777403473 | 28.33° C | 80% | 1011.1 hPa | 0 mm | - | - | - |
| 1777403168 | 28.89° C | 79% | 1011.1 hPa | 0 mm | - | - | - |
| 1777402864 | 28.89° C | 78% | 1011.1 hPa | 0 mm | - | - | - |
| 1777402560 | 28.33° C | 79% | 1011.4 hPa | 0 mm | - | - | - |
| 1777402258 | 28.33° C | 79% | 1011.6 hPa | 0 mm | - | - | - |
| 1777401953 | 28.33° C | 80% | 1011.8 hPa | 0 mm | - | - | - |
| 1777401651 | 27.78° C | 80% | 1011.8 hPa | 0 mm | - | - | - |
| 1777401349 | 28.33° C | 80% | 1011.9 hPa | 0 mm | - | - | - |
| 1777401044 | 28.89° C | 79% | 1011.9 hPa | 0 mm | - | - | - |
| 1777400740 | 28.89° C | 77% | 1012 hPa | 0 mm | - | - | - |
| 1777400437 | 28.89° C | 78% | 1011.8 hPa | 0 mm | - | - | - |
| 1777400132 | 28.89° C | 78% | 1012.1 hPa | 0 mm | - | - | - |
| 1777399830 | 28.89° C | 79% | 1012 hPa | 0 mm | - | - | - |
| 1777399526 | 28.89° C | 80% | 1012.2 hPa | 0 mm | - | - | - |
| 1777399224 | 28.89° C | 78% | 1012.4 hPa | 0 mm | - | - | - |
| 1777398921 | 27.78° C | 80% | 1012.5 hPa | 0 mm | - | - | - |
| 1777398618 | 28.33° C | 80% | 1012.7 hPa | 0 mm | - | - | - |
* Rain latest hour (hover to see other rain measurements)
** Current wind speed in m/s (hover to see current wind gust speed)